Preview of NWS' New Version of Forecast
This preview is not operational and should not be used for support decisions.
Latest weather observations around

Lansing Municipal Airport (KIGQ)

Using English Units (Switch to International System of Units)
Date/ Time (CDT) Wind (mph) Vis. (mi) Weather Sky Cond. Temp (°F) Rel. Humidity Wind Chill (°F) Heat Index (°F) Pressure Precip. (in)
Air Dwpt 6 hour Altimeter (inHg) Sea level (inHg) 1 hr 3 hr 6 hr
Max Min
May 26 11:55 Calm 10 Clear CLR 82 65     57%   84 29.8        
May 26 11:35 WSW 6 10 Clear CLR 81 68     64%   84 29.81        
May 26 11:15 SW 5 10 Clear CLR 81 68     65%   84 29.81        
May 26 10:55 Calm 10 Clear CLR 81 69     66%   84 29.8        
May 26 10:35 WSW 3 10 Partly Cloudy SCT120 80 69     68%   83 29.81        
May 26 10:15 W 5 10 Clear CLR 79 68     69%   82 29.81        
May 26 09:55 W 5 10 Clear CLR 78 68     70%   79 29.81        
May 26 09:35 Calm 10 Clear CLR 77 68     73%   78 29.81        
May 26 09:15 SW 3 10 Clear CLR 77 68     74%   78 29.81        
May 26 08:55 S 5 10 Clear CLR 75 69     80%   76 29.8        
May 26 08:35 S 6 10 Clear CLR 74 70     86%   75 29.81        
May 26 08:15 S 6 10 Clear CLR 73 69     87%   75 29.81        
May 26 07:55 SSW 6 10 Clear CLR 71 68     92%   72 29.8        
May 26 07:35 SW 6 10 Clear CLR 72 69     90%   73 29.8        
May 26 07:15 W 6 10 Clear CLR 71 68     92%   72 29.8        
May 26 06:55 W 6 10 Clear CLR 70 68     94%     29.79        
May 26 06:35 Calm 7 Clear CLR 68 68     99%     29.79        
May 26 06:15 Calm 5 Fog/Mist CLR 67 67     100%     29.78        
May 26 05:55 WSW 5 10 Clear CLR 67 67     99%     29.77        
May 26 05:35 WSW 6 10 Clear CLR 68 67     98%     29.77        
May 26 05:15 SSW 7 10 Partly Cloudy SCT120 67 67     98%     29.77        
May 26 04:55 SW 5 10 Mostly Cloudy SCT090 BKN110 68 67     96%     29.78        
May 26 04:35 SW 7 10 Cloudy SCT075 SCT090 OVC110 69 67     94%     29.79        
May 26 04:15 SW 5 10 Cloudy OVC110 68 67     95%     29.79        
May 26 03:55 WSW 5 10 Cloudy OVC110 69 67     93%     29.78        
May 26 03:35 SW 6 10 Cloudy OVC120 68 67     96%     29.77        
May 26 03:15 SSW 6 10 Cloudy OVC110 68 67     98%     29.76        
May 26 02:55 S 5 10 Partly Cloudy SCT110 67 67     100%     29.76        
May 26 02:35 SSW 5 10 Partly Cloudy SCT080 67 67     99%     29.77        
May 26 02:15 S 3 10 Partly Cloudy SCT080 68 67     96%     29.77        
May 26 01:55 S 6 10 Clear CLR 68 67     96%     29.77        
May 26 01:35 S 3 10 Partly Cloudy SCT120 69 67     96%     29.78        
May 26 01:15 S 5 10 Partly Cloudy SCT120 70 67     92%     29.79        
May 26 00:55 SW 6 10 Clear CLR 71 68     91%   72 29.81        
May 26 00:35 SW 5 10 Partly Cloudy SCT100 71 68     89%   72 29.81        
May 26 00:15 SW 6 10 Cloudy BKN090 OVC110 71 69     93%   72 29.81        
May 25 23:55 SW 8 10 Light Drizzle BKN110 72 69     90%   73 29.82        
May 25 23:35 WSW 9 10 Cloudy OVC110 73 69     88%   74 29.82        
May 25 23:15 WSW 6 10 Mostly Cloudy SCT070 BKN110 73 69     87%   74 29.82        
May 25 22:55 W 13 10 Light Rain BKN070 OVC080 74 68     82%   75 29.83        
May 25 22:35 SW 8 10 Cloudy OVC070 75 66     74%   76 29.83        
May 25 22:15 WSW 9 10 Cloudy BKN070 OVC090 75 66     73%   76 29.83        
May 25 21:55 S 3 10 Cloudy BKN090 OVC110 74 65     74%   75 29.8        
May 25 21:35 Calm 10 Cloudy SCT085 OVC100 74 66     76%   74 29.8        
May 25 21:15 Calm 10 Cloudy OVC085 76 65     68%   77 29.79        
May 25 20:55 W 3 10 Mostly Cloudy BKN085 BKN095 77 65     66%   77 29.78        
May 25 20:35 NW 3 10 Mostly Cloudy SCT095 BKN120 77 64     64%   78 29.78        
May 25 20:15 WNW 3 10 Cloudy OVC120 78 64     62%   79 29.78        
May 25 19:55 W 10 10 Partly Cloudy SCT120 79 65     63%   79 29.79        
May 25 19:35 W 7 10 Clear CLR 80 65     62%   81 29.77        
May 25 19:15 W 13 10 Partly Cloudy SCT090 81 64     58%   82 29.77        
May 25 18:55 Calm 10 Cloudy OVC090 81 65     58%   83 29.77        
May 25 18:35 ENE 5 10 Cloudy OVC090 81 64     56%   82 29.77        
May 25 18:15 Calm 10 Cloudy OVC100 83 62     50%   83 29.77        
May 25 17:55 ENE 3 10 Mostly Cloudy SCT085 BKN110 84 65     53%   85 29.77        
May 25 17:35 S 5 10 Partly Cloudy SCT085 83 64     53%   85 29.78        
May 25 17:15 SSW 3 10 Clear CLR 86 63     46%   87 29.79        
May 25 16:55 S 3 10 Partly Cloudy SCT090 86        %     29.8        
May 25 16:35 S 7 10 Mostly Cloudy BKN090 86        %     29.81        
May 25 16:15 S 7 10 Mostly Cloudy BKN080 87        %     29.81        
May 25 15:55 SE 5 10 Mostly Cloudy BKN080 BKN110 87        %     29.82        
May 25 15:35 SW 9 10 Cloudy BKN080 OVC110 86        %     29.83        
May 25 15:15 SSE 3 10 Mostly Cloudy BKN080 85        %     29.84        
May 25 14:55 Calm 10 Partly Cloudy SCT080 88        %     29.84        
May 25 14:35 Calm 10 Partly Cloudy SCT090 87 61     42%   87 29.86        
May 25 14:15 SW 7 10 Partly Cloudy SCT080 SCT100 85 62     46%   85 29.86        
May 25 13:55 SSW 6 10 Partly Cloudy SCT090 85 63     46%   86 29.88        
May 25 13:35 SW 3 10 Partly Cloudy SCT075 SCT095 87 62     44%   87 29.88        
May 25 13:15 SW 8 10 Partly Cloudy SCT075 SCT085 85        %     29.9        
May 25 12:55 SSW 6 10 Partly Cloudy SCT065 86 63     45%   87 29.91        
May 25 12:35 SW 9 10 Partly Cloudy SCT065 SCT085 85 64     48%   87 29.91        
May 25 12:15 SW 7 10 Mostly Cloudy SCT065 BKN085 84 63     49%   85 29.92        
May 25 11:55 WSW 7 10 Partly Cloudy SCT075 84 63     48%   85 29.93        
May 25 11:35 SW 7 10 Clear CLR 84 63     50%   86 29.93        
May 25 11:15 SW 8 10 Clear CLR 84 64     51%   85 29.94        
May 25 10:55 WSW 7 10 Clear CLR 83 63     51%   84 29.93        
May 25 10:35 SW 7 10 Clear CLR 82 64     54%   84 29.94        
May 25 10:15 SSW 10 10 Clear CLR 81 63     54%   83 29.94        
May 25 09:55 SW 9 10 Clear CLR 80 62     54%   82 29.95        
May 25 09:35 SW 7 10 Clear CLR 79 63     57%   80 29.96        
May 25 09:15 SW 8 10 Clear CLR 78 62     58%   78 29.96        
May 25 08:55 SSW 9 10 Clear CLR 76 62     61%   77 29.97        
May 25 08:35 SSW 8 10 Clear CLR 75 62     63%   75 29.97        
May 25 08:15 SSW 7 10 Clear CLR 74 61     65%   74 29.97        
May 25 07:55 SSW 6 10 Clear CLR 72 61     68%   72 29.97        
May 25 07:35 SSW 6 10 Clear CLR 70 60     70%     29.97        
May 25 07:15 S 7 10 Clear CLR 68 59     73%     29.97        
May 25 06:55 SSW 5 10 Clear CLR 67 58     74%     29.97        
May 25 06:35 SSW 3 10 Clear CLR 65 58     80%     29.97        
May 25 06:15 S 3 10 Clear CLR 63 55     77%     29.97        
May 25 05:55 Calm 10 Clear CLR 62 54     77%     29.98        
May 25 05:35 S 3 10 Clear CLR 61 54     78%     29.98        
May 25 05:15 SSW 3 10 Clear CLR 61 54     78%     29.99        
May 25 04:55 Calm 10 Clear CLR 64 54     69%     29.99        
May 25 04:35 Calm 10 Clear CLR 63 53     69%     29.99        
May 25 04:15 Calm 10 Clear CLR 63 53     69%     29.99        
May 25 03:55 Calm 10 Clear CLR 63 52     68%     30        
May 25 03:35 Calm 10 Clear CLR 64 52     65%     30.01        
May 25 03:15 Calm 10 Clear CLR 63 53     68%     30.01        
May 25 02:55 Calm 10 Clear CLR 62 54     73%     30.01        
May 25 02:35 Calm 10 Clear CLR 66 52     60%     30.01        
May 25 02:15 Calm 10 Clear CLR 64 51     62%     30.01        
May 25 01:55 Calm 10 Clear CLR 66 52     62%     30.02        
May 25 01:35 S 5 10 Clear CLR 65 52     62%     30.02        
May 25 01:15 S 6 10 Clear CLR 66 52     62%     30.03        
May 25 00:55 S 5 10 Clear CLR 66 53     63%     30.04        
May 25 00:35 S 5 10 Clear CLR 65 53     66%     30.04        
May 25 00:15 S 3 10 Clear CLR 65 55     69%     30.04        
May 24 23:55 S 5 10 Clear CLR 67 54     65%     30.04        
May 24 23:35 Calm 10 Clear CLR 67 54     62%     30.04        
May 24 23:15 Calm 10 Clear CLR 67 56     70%     30.04        
May 24 22:55 SSE 3 10 Clear CLR 71 56     58%   71 30.04        
May 24 22:35 SSE 5 10 Clear CLR 69 57     67%     30.04        
May 24 22:15 SE 3 10 Clear CLR 71 58     64%   70 30.04        
May 24 21:55 SE 5 10 Clear CLR 71 60     67%   71 30.04        
May 24 21:35 E 6 10 Clear CLR 71 59     66%   71 30.04        
May 24 21:15 E 3 10 Clear CLR 73 59     63%   73 30.04        
May 24 20:55 E 5 10 Clear CLR 74 59     58%   74 30.04        
May 24 20:35 E 5 10 Clear CLR 74 59     59%   74 30.04        
May 24 20:15 E 6 10 Clear CLR 76 59     55%   76 30.04        
May 24 19:55 E 5 10 Clear CLR 78 58     52%   78 30.04        
May 24 19:35 SE 5 10 Clear CLR 79 58     49%   79 30.04        
May 24 19:15 SE 6 10 Clear CLR 80 58     47%   81 30.04        
May 24 18:55 SE 5 10 Clear CLR 81 58     45%   81 30.04        
May 24 18:35 Calm 10 Clear CLR 82        %     30.04        
May 24 18:15 S 5 10 Clear CLR 83        %     30.05        
May 24 17:55 SE 6 10 Clear CLR 83        %     30.06        
May 24 17:35 SE 6 10 Clear CLR 83        %     30.07        
May 24 17:15 Calm 10 Clear CLR 84        %     30.08        
May 24 16:55 Calm 10 Clear CLR 84        %     30.08        
May 24 16:35 ESE 5 10 Clear CLR 84        %     30.09        
May 24 16:15 SE 7 10 Clear CLR 84        %     30.1        
May 24 15:55 ESE 5 10 Clear CLR 83        %     30.11        
May 24 15:35 ESE 5 10 Clear CLR 83        %     30.11        
May 24 15:15 SSE 6 10 Clear CLR 83        %     30.12        
May 24 14:55 Calm 10 Clear CLR 83 60     46%   83 30.13        
May 24 14:35 E 3 10 Clear CLR 83 59     45%   83 30.13        
May 24 14:15 SSW 3 10 Clear CLR 82 59     46%   82 30.13        
May 24 13:55 SE 3 10 Clear CLR 82 59     46%   82 30.13        
May 24 13:35 SSE 6 10 Clear CLR 82        %     30.15        
May 24 13:15 Calm 10 Clear CLR 81 59     47%   82 30.15        
May 24 12:55 SE 6 10 Clear CLR 81        %     30.16        
May 24 12:35 SSW 3 10 Clear CLR 81        %     30.17        
May 24 12:15 S 5 10 Clear CLR 80 59     49%   80 30.18        
May 24 11:55 SSW 5 10 Clear CLR 80 59     50%   80 30.18        
May 24 11:35 S 6 10 Clear CLR 79 60     52%   79 30.19        
May 24 11:15 SSW 7 10 Clear CLR 79 60     53%   79 30.2        
May 24 10:55 S 7 10 Clear CLR 78 60     54%   79 30.19        
May 24 10:35 SSW 10 10 Clear CLR 78 60     55%   78 30.2        
May 24 10:15 S 9 10 Clear CLR 77 62     59%   77 30.2        
May 24 09:55 S 8 10 Clear CLR 76 61     58%   76 30.21        
May 24 09:35 S 8 10 Clear CLR 76 62     62%   76 30.21        
May 24 09:15 S 7 10 Clear CLR 74 62     64%   74 30.22        
May 24 08:55 S 6 10 Clear CLR 73 61     66%   73 30.22        
May 24 08:35 S 7 10 Clear CLR 72 61     68%   72 30.22        
May 24 08:15 S 5 10 Clear CLR 70 61     73%   71 30.23        
May 24 07:55 S 7 10 Clear CLR 69 60     74%     30.22        
May 24 07:35 Calm 10 Clear CLR 65 61     88%     30.22        
May 24 07:15 Calm 10 Clear CLR 63 60     91%     30.22        
May 24 06:55 Calm 10 Clear CLR 60 58     96%     30.21        
May 24 06:35 Calm 7 Clear CLR 56 56     100%     30.21        
May 24 06:15 Calm 7 Clear CLR 54 54     100%     30.21        
May 24 05:55 Calm 5 Fog/Mist CLR 53 53     100%     30.2        
May 24 05:35 Calm 7 Clear CLR 54 54     100%     30.19        
May 24 05:15 Calm 7 Clear CLR 54 54     100%     30.19        
May 24 04:55 Calm 7 Clear CLR 54 54     100%     30.19        
May 24 04:35 Calm 10 Clear CLR 55 55     100%     30.18        
May 24 04:15 Calm 10 Clear CLR 55 55     100%     30.18        
May 24 03:55 Calm 10 Clear CLR 54 54     100%     30.17        
May 24 03:35 Calm 10 Clear CLR 54 54     100%     30.17        
May 24 03:15 Calm 10 Clear CLR 55 55     99%     30.17        
May 24 02:55 Calm 7 Clear CLR 55 55     100%     30.17        
May 24 02:35 Calm 7 Clear CLR 54 54     100%     30.17        
May 24 02:15 Calm 10 Clear CLR 55 55     100%     30.17        
May 24 01:55 Calm 10 Clear CLR 55 54     97%     30.17        
May 24 01:35 Calm 10 Clear CLR 56 55     96%     30.18        
May 24 01:15 Calm 10 Clear CLR 56 55     96%     30.18        
May 24 00:55 Calm 10 Clear CLR 56 55     97%     30.19        
May 24 00:35 Calm 10 Clear CLR 58 55     91%     30.19        
May 24 00:15 Calm 10 Clear CLR 57 55     93%     30.2        
May 23 23:55 Calm 10 Clear CLR 58 55     90%     30.2        
May 23 23:35 Calm 10 Clear CLR 58 55     91%     30.2        
May 23 23:15 Calm 10 Clear CLR 59 55     86%     30.2        
May 23 22:55 Calm 10 Clear CLR 59 55     86%     30.19        
May 23 22:35 Calm 10 Clear CLR 60 55     84%     30.2        
May 23 22:15 Calm 10 Clear CLR 60 55     83%     30.2        
May 23 21:55 Calm 10 Clear CLR 60 55     83%     30.19        
May 23 21:35 Calm 10 Clear CLR 60 55     82%     30.19        
May 23 21:15 NE 6 10 Clear CLR 61 54     80%     30.18        
May 23 20:55 NE 5 10 Clear CLR 61 54     79%     30.18        
May 23 20:35 NE 5 10 Clear CLR 62 54     74%     30.18        
May 23 20:15 NE 6 10 Clear CLR 63 53     71%     30.17        
May 23 19:55 NE 5 10 Clear CLR 65 54     70%     30.16        
May 23 19:35 NE 7 10 Clear CLR 66 54     65%     30.16        
May 23 19:15 NE 6 10 Clear CLR 68 52     56%     30.16        
May 23 18:55 NE 9 10 Clear CLR 69 51     52%     30.15        
May 23 18:35 NNE 7 10 Clear CLR 71 55     58%   70 30.15        
May 23 18:15 NE 6 7 Clear CLR 72 54     53%   71 30.15        
May 23 17:55 NE 6 10 Clear CLR 72 53     50%   72 30.15        
May 23 17:35 ENE 6 10 Clear CLR 73 53     50%   72 30.16        
May 23 17:15 ENE 6 5 Haze CLR 74 54     49%   73 30.16        
May 23 16:55 ENE 7 10 Clear CLR 74 55     50%   74 30.16        
May 23 16:35 NNE 6 10 Clear CLR 75 52     45%   74 30.16        
May 23 16:15 NE 5 7 Clear CLR 75 53     47%   75 30.16        
May 23 15:55 ENE 7 10 Clear CLR 76 53     46%   75 30.17        
May 23 15:35 NE 7 10 Clear CLR 76 52     43%   75 30.18        
May 23 15:15 Calm 10 Clear CLR 76 51     42%   75 30.19        
May 23 14:55 NNE 6 10 Clear CLR 75 53     46%   75 30.19        
May 23 14:35 NE 9 10 Clear CLR 75 56     52%   75 30.19        
May 23 14:15 NNE 6 10 Clear CLR 75 58     55%   75 30.2        
May 23 13:55 N 5 10 Clear CLR 75 57     54%   75 30.2        
May 23 13:35 ENE 3 10 Clear CLR 75 57     54%   74 30.21        
May 23 13:15 Calm 10 Clear CLR 74 57     55%   74 30.21        
May 23 12:55 NNE 3 10 Clear CLR 74 61     65%   74 30.21        
May 23 12:35 Calm 10 Clear CLR 73 62     68%   73 30.21        
May 23 12:15 ENE 5 10 Clear CLR 73 61     66%   73 30.21        
May 23 11:55 SSE 3 10 Clear CLR 72 59     65%   72 30.21        
May 23 11:35 N 5 10 Clear CLR 71 61     70%   72 30.21        
May 23 11:15 Calm 10 Clear CLR 70 60     71%     30.21        
May 23 10:55 ENE 5 10 Clear CLR 70 62     76%   70 30.21        
May 23 10:35 E 3 10 Clear CLR 70 61     75%     30.21        
May 23 10:15 NE 6 10 Clear CLR 69 62     77%     30.21        
May 23 09:55 ENE 6 10 Clear CLR 68 61     77%     30.21        
May 23 09:35 NE 3 10 Clear CLR 67 60     79%     30.21        
May 23 09:15 Calm 10 Clear CLR 66 59     80%     30.21        
May 23 08:55 Calm 10 Clear CLR 64 58     82%     30.21        
May 23 08:35 E 3 7 Clear CLR 62 58     86%     30.2        
May 23 08:15 Calm 5 Fog/Mist CLR 59 57     93%     30.21        
May 23 07:55 Calm 4 Fog/Mist CLR 57 57     99%     30.2        
May 23 07:35 Calm 3 Fog/Mist CLR 56 56     99%     30.2        
May 23 07:15 Calm 3 Fog/Mist CLR 54 54     100%     30.2        
May 23 06:55 Calm 3 Fog/Mist CLR 53 53     100%     30.19        
May 23 06:35 Calm 3 Fog/Mist CLR 51 51     100%     30.18        
May 23 06:15 Calm 4 Fog/Mist CLR 49 49     100%     30.17        
May 23 05:55 Calm 4 Fog/Mist CLR 48 48     100%     30.17        
May 23 05:35 Calm 4 Fog/Mist CLR 48 48     100%     30.16        
May 23 05:15 Calm 5 Fog/Mist CLR 48 48     100%     30.16        
May 23 04:55 Calm 4 Fog/Mist CLR 48 48     100%     30.15        
May 23 04:35 Calm 2.5 Fog/Mist CLR 48 48     100%     30.14        
May 23 04:15 Calm 5 Fog/Mist CLR 48 48     100%     30.14        
Notice The following observation data may not be complete
May 15 09:15   10 Partly Cloudy SCT017 SCT032          %              
May 14 23:15 SE 5 1.5 Cloudy BKN015 BKN024 OVC038 63 63     98%     29.85   0    
May 14 10:15 Calm 10 Cloudy OVC090 65 65     99%     29.98        
May 14 06:55   7 Cloudy BKN050 BKN065 OVC080 58 57     97%     30.01        
May 14 02:35 SE 3 7 Clear CLR 52 52     100%     29.92        
May 13 22:55 Calm 7 Mostly Cloudy BKN085 52 51     98%     29.99        
May 13 14:15 N 7 10 Partly Cloudy SCT080 64 57     78%     30.02        
May 13 12:35 NNE 5 7 Clear   63 58     82%     30.04        
May 13 12:15 NNE 7 7 Mostly Cloudy BKN100 62 57     83%     30.04        
Notice The following observation data may not be complete
May 13 09:15   4 Fog/Mist OVC005          %              
May 13 01:15 NE 8 3 Thunderstorms and Rain OVC003 50 50     100% 47   30.05        
May 12 23:35 NE 3 5 Fog/Mist OVC005 47 47     100% 46   30.04        
May 12 16:35 ENE 8 2 Clear   47 47     100% 43   30.04        
May 12 14:15 NNE 9 7 Cloudy OVC012 48 46     93% 44   30.11        
Notice The following observation data may not be complete
May 12 13:15   7 Cloudy OVC012          %              
May 12 12:35 NNE 11 10 Cloudy OVC010 50 47     90% 45   30.1        
May 12 03:35 NNE 13 10 Clear   47 45     93% 42   29.96        
May 12 01:55 NE 13 10 Cloudy OVC080 49 46     92% 44   29.95        
Notice The following observation data may not be complete
May 12 00:35   10 Cloudy OVC090          %              
May 11 23:35 NNE 6 10 Cloudy OVC090 51 47     89%     29.96        
May 11 22:55 NE 5 10 Cloudy SCT090 OVC120 50 47     90% 48   29.96        
May 11 22:35 NNE 6 10 Cloudy OVC120 50 47     90% 48   29.96        
May 11 21:55 NE 6 10 Cloudy OVC110 50 47     90% 47   29.96        
May 11 20:55 NE 10 10 Mostly Cloudy SCT070 BKN095 50 47     90% 46   29.94        
May 11 13:15 E 15 10 Clear CLR 58 51     76%     29.94        
Jun 12 07:35 W 13 10 Clear CLR 76 61     60%   76 29.99        
Jun 12 01:55 SSW 10 10 Clear CLR 73 58     58%   73 29.96        
Jun 11 21:15 S 14 10 Clear CLR 81 56     42%   81 29.89        
Notice The following observation data may not be complete
Jun 11 16:35   10 Clear CLR          %              
Jun 11 12:35 SW 18 10 Clear CLR 88 59     38%   88 29.96        
Notice The following observation data may not be complete
Jun 11 12:15   10 Clear CLR          %              
Jun 11 10:35 WSW 16 10 Clear CLR 84 60     44%   84 29.99        
Notice The following observation data may not be complete
Jun 11 02:35   10 Clear CLR          %              
Notice The following observation data may not be complete
Jun 10 20:15   10 Clear CLR          %              
Jun 10 17:55 SSW 23 10 Clear and Windy CLR 87 47     24%   84 29.81        
Jun 10 15:55   10 Clear CLR 89 47     24%   86 29.83        
Jun 10 15:15 SSW 23 7 Clear and Windy CLR 89 49     26%   86 29.83        
Jun 10 13:15   10 Clear CLR 87 49     28%   84 29.87        
Jun 10 10:55 SW 20 10 Clear and Windy CLR 82 53     37%   81 29.89        
Jun 10 08:15 SW 9 10 Clear CLR 71 56     59%   70 29.91        
Notice The following observation data may not be complete
Jun 09 23:15   10 Clear CLR          %              
Jun 09 18:55 NNE 8 10 Mostly Cloudy SCT085 BKN110 72 56     56%   72 29.8        
Notice The following observation data may not be complete
Jun 09 18:15   10 Mostly Cloudy SCT030 BKN085          %              
Jun 09 16:35 NE 13 10 Clear   83 55     38%   82 29.77        
Jun 09 16:15   10 Partly Cloudy SCT090 88 52     29%   86 29.76        
Jun 09 10:35 W 11 10 Clear CLR 80 54     40%   80 29.82        
Notice The following observation data may not be complete
Jun 09 09:15   10 Partly Cloudy SCT095          %              
Jun 09 06:55 NNW 9 10 Partly Cloudy SCT100 SCT120 68 50     53%     29.81        
Notice The following observation data may not be complete
Jun 09 04:35   10 Clear CLR          %              
Jun 09 00:15 Calm 10 Clear   64 49     57%     29.85        
Jun 08 23:15 S 7 10 Mostly Cloudy BKN100 65 49     55%     29.85        
Jun 08 18:55 WSW 6 10 Clear CLR 77 41     27%   76 29.86        
Notice The following observation data may not be complete
Jun 07 22:15   10 Clear CLR          %              
Notice The following observation data may not be complete
Jun 07 21:15   10 Clear CLR          %              
Jun 07 14:35 NE 9 10 Clear CLR 71 45     40%   70 30.11        
Jun 07 11:55 NNE 11 10 Clear CLR 69 48     48%     30.14        
Jun 07 10:55 NNE 11 10 Clear CLR 67 48     49%     30.15        
Notice The following observation data may not be complete
Jun 07 09:15   10 Clear CLR          %              
Jun 06 09:55 NNE 10 10 Clear CLR 63 48     59%     30.06        
Notice The following observation data may not be complete
Jun 06 09:15   10 Clear CLR          %              
Jun 06 04:35 N 7 10 Clear CLR 55 49     81%     29.99        
Jun 06 00:35 N 10 10 Clear CLR 57 45     64%     29.96        
Notice The following observation data may not be complete
Jun 05 19:15   10 Clear CLR          %